CFG7KE GCTS-EDDM

Flight info

Callsign CFG7KE
Flight time 3h 59m
Altitude 34000
Route VASTO UN858 DIMSA/N0449F360 UN858 AKUDA DCT PESAS DCT OSLEP DCT OXACA M30 HIJ N10 VTB N871 TOPTU DCT TOU DCT GAI DCT MEN DCT NINUN DCT LATAM DCT ETREK DCT LTP DCT SOPLO DCT OMASI DCT KINNI DCT LAMUR DCT KORED DCT BERSU DCT DITON/N0448F370 DCT NUNRI T103 BETOS BETOS1A
Aircraft A321/M-SDE3FGHIRWY/LB1

Departure

Time 2026-05-06 13:14
Airport Tenerife Sur Airport (GCTS)

Arrival

Time 2026-05-06 17:14
Airport Munich Airport (EDDM)
Time Latitude Longitude Altitude Speed Heading
2026-05-06 12:01 28.04726 -16.57628 226 ft 0 kts 339°
2026-05-06 13:05 28.04707 -16.57620 226 ft 4 kts 338°
2026-05-06 13:05 28.04686 -16.57610 227 ft 4 kts 336°
2026-05-06 13:06 28.04666 -16.57594 228 ft 4 kts 295°
2026-05-06 13:06 28.04662 -16.57566 226 ft 4 kts 257°
2026-05-06 13:06 28.04666 -16.57552 227 ft 0 kts 248°
2026-05-06 13:08 28.04650 -16.57596 227 ft 10 kts 248°
2026-05-06 13:08 28.04626 -16.57664 224 ft 9 kts 248°
2026-05-06 13:09 28.04587 -16.57705 224 ft 8 kts 194°
2026-05-06 13:09 28.04534 -16.57685 223 ft 9 kts 157°
2026-05-06 13:09 28.04483 -16.57686 224 ft 7 kts 220°
2026-05-06 13:09 28.04463 -16.57732 222 ft 7 kts 249°
2026-05-06 13:10 28.04432 -16.57822 222 ft 17 kts 248°
2026-05-06 13:10 28.04374 -16.57986 223 ft 27 kts 248°
2026-05-06 13:10 28.04294 -16.58216 223 ft 36 kts 248°
2026-05-06 13:10 28.04203 -16.58477 223 ft 34 kts 249°
2026-05-06 13:11 28.04130 -16.58708 220 ft 24 kts 248°
2026-05-06 13:11 28.04073 -16.58871 212 ft 21 kts 248°
2026-05-06 13:11 28.04026 -16.58982 214 ft 0 kts 224°
2026-05-06 13:12 28.04025 -16.58983 214 ft 3 kts 224°
2026-05-06 13:12 28.03989 -16.59001 209 ft 6 kts 179°
2026-05-06 13:13 28.03946 -16.58962 211 ft 16 kts 128°
2026-05-06 13:13 28.03914 -16.58776 196 ft 31 kts 74°
2026-05-06 13:13 28.04029 -16.58444 195 ft 72 kts 68°
2026-05-06 13:13 28.04289 -16.57706 199 ft 126 kts 68°
2026-05-06 13:14 28.04659 -16.56634 216 ft 162 kts 78°
2026-05-06 13:14 28.05048 -16.55475 882 ft 152 kts 70°
2026-05-06 13:14 28.05434 -16.54360 1565 ft 154 kts 66°
2026-05-06 13:14 28.05838 -16.53198 1955 ft 164 kts 66°
2026-05-06 13:15 28.06291 -16.51940 2117 ft 184 kts 67°
2026-05-06 13:15 28.06795 -16.50515 2260 ft 206 kts 68°
2026-05-06 13:15 28.07351 -16.48928 2392 ft 228 kts 68°
2026-05-06 13:15 28.07752 -16.47782 2497 ft 245 kts 67°
2026-05-06 13:16 28.08392 -16.45945 3005 ft 256 kts 68°
2026-05-06 13:16 28.08756 -16.43944 3651 ft 264 kts 84°
2026-05-06 13:16 28.08908 -16.41854 4446 ft 268 kts 85°
2026-05-06 13:16 28.09057 -16.39740 5266 ft 272 kts 85°
2026-05-06 13:17 28.09213 -16.37584 6052 ft 277 kts 85°
2026-05-06 13:17 28.09371 -16.35391 6743 ft 282 kts 85°
2026-05-06 13:17 28.09532 -16.33151 7407 ft 287 kts 84°
2026-05-06 13:17 28.09694 -16.30882 8042 ft 292 kts 84°
2026-05-06 13:18 28.09862 -16.28576 8695 ft 297 kts 84°
2026-05-06 13:18 28.10033 -16.26222 9277 ft 303 kts 84°
2026-05-06 13:18 28.10206 -16.23827 9921 ft 307 kts 84°
2026-05-06 13:18 28.10381 -16.21422 10382 ft 318 kts 84°
2026-05-06 13:19 28.10571 -16.18844 10497 ft 339 kts 84°
2026-05-06 13:19 28.10770 -16.16100 10621 ft 360 kts 84°
2026-05-06 13:19 28.10976 -16.13205 10828 ft 376 kts 84°
2026-05-06 13:19 28.11186 -16.10221 11280 ft 383 kts 85°
2026-05-06 13:20 28.11397 -16.07192 11846 ft 387 kts 85°
2026-05-06 13:20 28.11609 -16.04125 12435 ft 391 kts 85°
2026-05-06 13:20 28.11665 -16.01028 13000 ft 395 kts 94°
2026-05-06 13:20 28.11457 -15.97952 13580 ft 399 kts 95°
2026-05-06 13:21 28.11245 -15.94807 14114 ft 402 kts 95°
2026-05-06 13:21 28.11034 -15.91636 14618 ft 406 kts 94°
2026-05-06 13:21 28.10821 -15.88437 15126 ft 409 kts 94°
2026-05-06 13:21 28.10610 -15.85213 15625 ft 412 kts 94°
2026-05-06 13:22 28.10399 -15.81969 16127 ft 415 kts 94°
2026-05-06 13:22 28.10183 -15.78700 16619 ft 418 kts 94°
2026-05-06 13:22 28.09962 -15.75405 17102 ft 421 kts 95°
2026-05-06 13:22 28.09734 -15.72071 17576 ft 424 kts 95°
2026-05-06 13:23 28.09505 -15.68761 18041 ft 427 kts 95°
2026-05-06 13:23 28.09274 -15.65392 18497 ft 430 kts 95°
2026-05-06 13:23 28.09044 -15.62004 18878 ft 433 kts 95°
2026-05-06 13:23 28.08809 -15.58589 19288 ft 436 kts 95°
2026-05-06 13:24 28.08570 -15.55154 19694 ft 439 kts 95°
2026-05-06 13:24 28.08359 -15.51702 20101 ft 441 kts 91°
2026-05-06 13:24 28.08614 -15.48214 20489 ft 443 kts 78°
2026-05-06 13:24 28.09505 -15.44918 20869 ft 444 kts 65°
2026-05-06 13:25 28.11006 -15.41865 21256 ft 444 kts 52°
2026-05-06 13:25 28.13039 -15.39233 21634 ft 444 kts 40°
2026-05-06 13:25 28.15492 -15.37130 22019 ft 443 kts 31°
2026-05-06 13:25 28.18088 -15.35202 22409 ft 445 kts 31°
2026-05-06 13:26 28.20688 -15.33274 22799 ft 448 kts 31°
2026-05-06 13:26 28.23304 -15.31335 23193 ft 450 kts 31°
2026-05-06 13:26 28.25933 -15.29385 23576 ft 452 kts 31°
2026-05-06 13:26 28.28573 -15.27420 23893 ft 455 kts 31°
2026-05-06 13:27 28.31221 -15.25443 24195 ft 457 kts 31°
2026-05-06 13:27 28.33883 -15.23453 24490 ft 460 kts 31°
2026-05-06 13:27 28.36558 -15.21453 24777 ft 462 kts 31°
2026-05-06 13:27 28.39254 -15.19439 25087 ft 464 kts 31°
2026-05-06 13:28 28.41955 -15.17427 25418 ft 465 kts 31°
2026-05-06 13:28 28.44665 -15.15405 25727 ft 467 kts 31°
2026-05-06 13:28 28.47387 -15.13371 26027 ft 469 kts 31°
2026-05-06 13:28 28.50079 -15.11355 26302 ft 471 kts 31°
2026-05-06 13:29 28.52830 -15.09292 26579 ft 473 kts 31°
2026-05-06 13:29 28.55580 -15.07225 26851 ft 475 kts 31°
2026-05-06 13:29 28.58341 -15.05148 27119 ft 477 kts 31°
2026-05-06 13:29 28.61116 -15.03064 27391 ft 479 kts 31°
2026-05-06 13:30 28.63903 -15.00973 27665 ft 481 kts 31°
2026-05-06 13:30 28.66705 -14.98870 27928 ft 483 kts 31°
2026-05-06 13:30 28.69513 -14.96760 28194 ft 485 kts 31°
2026-05-06 13:30 28.72324 -14.94648 28526 ft 484 kts 31°
2026-05-06 13:31 28.75126 -14.92539 28914 ft 483 kts 31°
2026-05-06 13:31 28.77937 -14.90421 29208 ft 484 kts 31°
2026-05-06 13:31 28.80749 -14.88303 29533 ft 484 kts 31°
2026-05-06 13:31 28.83561 -14.86187 29876 ft 484 kts 31°
2026-05-06 13:32 28.86368 -14.84071 30203 ft 483 kts 31°
2026-05-06 13:32 28.89169 -14.81954 30482 ft 483 kts 31°
2026-05-06 13:32 28.91976 -14.79827 30758 ft 483 kts 31°
2026-05-06 13:32 28.94747 -14.77728 31042 ft 483 kts 31°
2026-05-06 13:33 28.97543 -14.75610 31320 ft 482 kts 31°
2026-05-06 13:33 29.00341 -14.73490 31595 ft 482 kts 31°
2026-05-06 13:33 29.03137 -14.71373 31952 ft 480 kts 31°
2026-05-06 13:33 29.05917 -14.69268 32308 ft 478 kts 32°
2026-05-06 13:34 29.08684 -14.67168 32626 ft 477 kts 32°
2026-05-06 13:34 29.11448 -14.65066 32924 ft 477 kts 32°
2026-05-06 13:34 29.14205 -14.62965 33213 ft 476 kts 32°
2026-05-06 13:34 29.16969 -14.60863 33499 ft 476 kts 32°
2026-05-06 13:35 29.19702 -14.58789 33780 ft 476 kts 32°
2026-05-06 13:35 29.22463 -14.56693 34002 ft 477 kts 31°
2026-05-06 13:35 29.25254 -14.54570 34057 ft 479 kts 32°
2026-05-06 13:36 29.30781 -14.50349 34057 ft 480 kts 32°
2026-05-06 13:36 29.36283 -14.46142 34056 ft 473 kts 32°
2026-05-06 13:37 29.41781 -14.41930 34057 ft 472 kts 32°
2026-05-06 13:37 29.47229 -14.37762 34057 ft 472 kts 32°
2026-05-06 13:38 29.52698 -14.33577 34060 ft 472 kts 32°
2026-05-06 13:38 29.58158 -14.29388 34061 ft 472 kts 32°
2026-05-06 13:39 29.63579 -14.25216 34077 ft 471 kts 32°
2026-05-06 13:39 29.69024 -14.21034 34054 ft 470 kts 32°
2026-05-06 13:40 29.74487 -14.16832 34032 ft 474 kts 32°
2026-05-06 13:40 29.79982 -14.12590 34033 ft 477 kts 32°
2026-05-06 13:41 29.85498 -14.08326 34036 ft 478 kts 32°
2026-05-06 13:41 29.91029 -14.04051 34043 ft 479 kts 32°
2026-05-06 13:42 29.96568 -13.99756 34043 ft 480 kts 32°
2026-05-06 13:42 30.02113 -13.95447 34052 ft 480 kts 32°
2026-05-06 13:43 30.07624 -13.91165 34046 ft 480 kts 32°
2026-05-06 13:43 30.13174 -13.86850 34055 ft 480 kts 32°
2026-05-06 13:44 30.18727 -13.82528 34038 ft 482 kts 32°
2026-05-06 13:44 30.24305 -13.78169 34054 ft 484 kts 32°
2026-05-06 13:45 30.29881 -13.73810 34062 ft 483 kts 32°
2026-05-06 13:45 30.38194 -13.67307 34062 ft 483 kts 32°
2026-05-06 13:46 30.43762 -13.62945 34065 ft 482 kts 32°
2026-05-06 13:46 30.49322 -13.58570 34066 ft 482 kts 32°
2026-05-06 13:47 30.54870 -13.54188 34083 ft 481 kts 32°
2026-05-06 13:47 30.60373 -13.49810 34099 ft 478 kts 32°
2026-05-06 13:48 30.65861 -13.45423 34069 ft 479 kts 32°
2026-05-06 13:48 30.71323 -13.41058 34061 ft 480 kts 32°
2026-05-06 13:49 30.76832 -13.36668 34058 ft 480 kts 32°
2026-05-06 13:49 30.82344 -13.32269 34054 ft 481 kts 32°
2026-05-06 13:50 30.87844 -13.27854 34092 ft 479 kts 32°
2026-05-06 13:50 30.93311 -13.23464 34094 ft 477 kts 32°
2026-05-06 13:51 30.98781 -13.19114 34091 ft 475 kts 32°
2026-05-06 13:51 31.04246 -13.14790 34086 ft 474 kts 32°
2026-05-06 13:52 31.09700 -13.10455 34060 ft 476 kts 32°
2026-05-06 13:52 31.15178 -13.06078 34076 ft 477 kts 32°
2026-05-06 13:53 31.20647 -13.01712 34088 ft 475 kts 32°
2026-05-06 13:53 31.26098 -12.97351 34087 ft 474 kts 32°
2026-05-06 13:54 31.31535 -12.92988 34085 ft 473 kts 32°
2026-05-06 13:54 31.36969 -12.88636 34079 ft 473 kts 32°
2026-05-06 13:55 31.42396 -12.84286 34079 ft 473 kts 32°
2026-05-06 13:55 31.47815 -12.79923 34076 ft 473 kts 32°
2026-05-06 13:56 31.53238 -12.75554 34087 ft 473 kts 32°
2026-05-06 13:56 31.58668 -12.71173 34067 ft 474 kts 32°
2026-05-06 13:57 31.64062 -12.66818 34062 ft 474 kts 32°
2026-05-06 13:57 31.69490 -12.62419 34059 ft 474 kts 32°
2026-05-06 13:58 31.74922 -12.58008 34070 ft 475 kts 32°
2026-05-06 13:58 31.80358 -12.53598 34067 ft 475 kts 31°
2026-05-06 13:59 31.85803 -12.49184 34065 ft 475 kts 31°
2026-05-06 13:59 31.91258 -12.44754 34062 ft 476 kts 32°
2026-05-06 14:00 31.96701 -12.40315 34071 ft 476 kts 32°
2026-05-06 14:00 32.02151 -12.35866 34090 ft 477 kts 31°
2026-05-06 14:01 32.07612 -12.31422 34075 ft 477 kts 31°
2026-05-06 14:01 32.13078 -12.26973 34076 ft 477 kts 31°
2026-05-06 14:02 32.18547 -12.22520 34070 ft 478 kts 31°
2026-05-06 14:02 32.24014 -12.18051 34067 ft 478 kts 31°
2026-05-06 14:03 32.28554 -12.14331 34065 ft 478 kts 32°
2026-05-06 14:03 32.34909 -12.09110 34072 ft 479 kts 31°
2026-05-06 14:04 32.40385 -12.04614 34067 ft 480 kts 31°
2026-05-06 14:04 32.44977 -12.00838 34067 ft 480 kts 32°
2026-05-06 14:05 32.50454 -11.96328 34068 ft 479 kts 32°
2026-05-06 14:05 32.55899 -11.91830 34068 ft 479 kts 32°
2026-05-06 14:06 32.61376 -11.87311 34088 ft 480 kts 31°
2026-05-06 14:06 32.66856 -11.82773 34072 ft 480 kts 31°
2026-05-06 14:07 32.72340 -11.78226 34066 ft 481 kts 31°
2026-05-06 14:07 32.77837 -11.73675 34060 ft 481 kts 31°
2026-05-06 14:08 32.83324 -11.69106 34058 ft 481 kts 32°
2026-05-06 14:08 32.88807 -11.64531 34058 ft 482 kts 32°
2026-05-06 14:09 32.94268 -11.59989 34058 ft 482 kts 32°
2026-05-06 14:09 32.99754 -11.55407 34057 ft 482 kts 32°
2026-05-06 14:10 33.05239 -11.50817 34053 ft 482 kts 32°
2026-05-06 14:10 33.10727 -11.46218 34252 ft 482 kts 32°
2026-05-06 14:11 33.13473 -11.43912 34484 ft 482 kts 32°
2026-05-06 14:11 33.16212 -11.41611 34727 ft 482 kts 32°
2026-05-06 14:11 33.18958 -11.39304 34934 ft 482 kts 32°
2026-05-06 14:11 33.21704 -11.36986 35142 ft 483 kts 32°
2026-05-06 14:12 33.24449 -11.34661 35345 ft 483 kts 32°
2026-05-06 14:12 33.27188 -11.32332 35551 ft 483 kts 32°
2026-05-06 14:12 33.29928 -11.29997 35755 ft 484 kts 32°
2026-05-06 14:12 33.32671 -11.27661 35936 ft 484 kts 32°
2026-05-06 14:13 33.35418 -11.25323 36044 ft 485 kts 32°
2026-05-06 14:13 33.38176 -11.22978 36048 ft 486 kts 32°
2026-05-06 14:13 33.43651 -11.18323 36041 ft 485 kts 32°
2026-05-06 14:14 33.49154 -11.13643 36040 ft 484 kts 32°
2026-05-06 14:14 33.54641 -11.08957 36045 ft 484 kts 32°
2026-05-06 14:15 33.60123 -11.04262 36043 ft 485 kts 32°
2026-05-06 14:15 33.65608 -10.99557 36052 ft 485 kts 32°
2026-05-06 14:16 33.71100 -10.94841 36052 ft 485 kts 32°
2026-05-06 14:16 33.76589 -10.90128 36080 ft 485 kts 32°
2026-05-06 14:17 33.82072 -10.85402 36071 ft 485 kts 32°
2026-05-06 14:17 33.87552 -10.80664 36065 ft 485 kts 32°
2026-05-06 14:18 33.93035 -10.75926 36059 ft 485 kts 32°
2026-05-06 14:18 33.98517 -10.71179 36057 ft 485 kts 32°
2026-05-06 14:19 34.03997 -10.66424 36078 ft 485 kts 32°
2026-05-06 14:19 34.09474 -10.61661 36068 ft 485 kts 32°
2026-05-06 14:20 34.14951 -10.56909 36066 ft 485 kts 32°
2026-05-06 14:20 34.20392 -10.52166 36062 ft 485 kts 32°
2026-05-06 14:21 34.25875 -10.47376 36059 ft 485 kts 32°
2026-05-06 14:21 34.31343 -10.42599 36076 ft 485 kts 32°
2026-05-06 14:22 34.36802 -10.37819 36065 ft 484 kts 32°
2026-05-06 14:22 34.42254 -10.33045 36056 ft 483 kts 32°
2026-05-06 14:23 34.47703 -10.28271 36049 ft 483 kts 32°
2026-05-06 14:23 34.53139 -10.23480 36042 ft 483 kts 32°
2026-05-06 14:24 34.58571 -10.18687 36064 ft 483 kts 32°
2026-05-06 14:24 34.63972 -10.13921 36058 ft 482 kts 32°
2026-05-06 14:25 34.69410 -10.09143 36047 ft 482 kts 32°
2026-05-06 14:25 34.74848 -10.04372 36042 ft 482 kts 32°
2026-05-06 14:26 34.80291 -9.99591 36039 ft 482 kts 32°
2026-05-06 14:26 34.85727 -9.94786 36067 ft 482 kts 32°
2026-05-06 14:27 34.91153 -9.89977 36058 ft 482 kts 32°
2026-05-06 14:27 34.96567 -9.85173 36052 ft 481 kts 32°
2026-05-06 14:28 35.01982 -9.80368 36043 ft 481 kts 32°
2026-05-06 14:28 35.07406 -9.75555 36039 ft 482 kts 32°
2026-05-06 14:29 35.12793 -9.70769 36064 ft 482 kts 32°
2026-05-06 14:29 35.18208 -9.65935 36050 ft 481 kts 32°
2026-05-06 14:30 35.23610 -9.61107 36044 ft 481 kts 32°
2026-05-06 14:30 35.29009 -9.56276 36042 ft 481 kts 32°
2026-05-06 14:31 35.34424 -9.51419 36042 ft 481 kts 32°
2026-05-06 14:31 35.39813 -9.46579 36054 ft 480 kts 33°
2026-05-06 14:32 35.45164 -9.41753 36050 ft 480 kts 33°
2026-05-06 14:32 35.50547 -9.36904 36037 ft 480 kts 33°
2026-05-06 14:33 35.55944 -9.32042 36036 ft 480 kts 33°
2026-05-06 14:33 35.61277 -9.27072 36030 ft 483 kts 41°
2026-05-06 14:34 35.65919 -9.21135 36028 ft 484 kts 44°
2026-05-06 14:34 35.70550 -9.15105 36027 ft 485 kts 44°
2026-05-06 14:35 35.75166 -9.09061 36022 ft 484 kts 44°
2026-05-06 14:35 35.79793 -9.03019 36005 ft 485 kts 44°
2026-05-06 14:36 35.84427 -8.96958 35998 ft 486 kts 44°
2026-05-06 14:36 35.89070 -8.90882 36003 ft 487 kts 44°
2026-05-06 14:37 35.93710 -8.84791 36015 ft 487 kts 44°
2026-05-06 14:37 35.98345 -8.78687 36016 ft 487 kts 44°
2026-05-06 14:38 36.02973 -8.72579 36027 ft 487 kts 44°
2026-05-06 14:38 36.07578 -8.66495 36001 ft 488 kts 44°
2026-05-06 14:39 36.12213 -8.60365 35989 ft 488 kts 44°
2026-05-06 14:39 36.16862 -8.54220 35988 ft 489 kts 44°
2026-05-06 14:40 36.21501 -8.48061 36008 ft 489 kts 44°
2026-05-06 14:40 36.26132 -8.41895 36006 ft 488 kts 44°
2026-05-06 14:41 36.30759 -8.35723 36004 ft 488 kts 44°
2026-05-06 14:41 36.35380 -8.29545 35979 ft 489 kts 45°
2026-05-06 14:42 36.40023 -8.23330 35967 ft 491 kts 45°
2026-05-06 14:42 36.44645 -8.17135 35965 ft 492 kts 45°
2026-05-06 14:43 36.49295 -8.10903 35990 ft 491 kts 45°
2026-05-06 14:43 36.53928 -8.04660 35991 ft 490 kts 45°
2026-05-06 14:44 36.58550 -7.98422 35977 ft 490 kts 45°
2026-05-06 14:45 36.65470 -7.89070 35977 ft 489 kts 45°
2026-05-06 14:45 36.70081 -7.82835 35966 ft 489 kts 45°
2026-05-06 14:46 36.74654 -7.76631 35984 ft 489 kts 45°
2026-05-06 14:46 36.79279 -7.70348 35974 ft 488 kts 45°
2026-05-06 14:47 36.83829 -7.64145 35975 ft 487 kts 45°
2026-05-06 14:47 36.88403 -7.57900 35963 ft 487 kts 45°
2026-05-06 14:48 36.92990 -7.51625 35940 ft 489 kts 45°
2026-05-06 14:48 36.97572 -7.45345 35936 ft 489 kts 45°
2026-05-06 14:49 37.02164 -7.39026 35944 ft 490 kts 45°
2026-05-06 14:49 37.06748 -7.32712 35947 ft 489 kts 45°
2026-05-06 14:50 37.11293 -7.26438 35938 ft 489 kts 45°
2026-05-06 14:50 37.15865 -7.20128 35932 ft 489 kts 46°
2026-05-06 14:51 37.20375 -7.13699 35918 ft 492 kts 48°
2026-05-06 14:51 37.24041 -7.08160 35910 ft 493 kts 49°
2026-05-06 14:52 37.28363 -7.01542 35934 ft 493 kts 49°
2026-05-06 14:52 37.32750 -6.94917 35928 ft 493 kts 48°
2026-05-06 14:53 37.37163 -6.88299 35928 ft 493 kts 48°
2026-05-06 14:53 37.41564 -6.81688 35914 ft 493 kts 49°
2026-05-06 14:54 37.45958 -6.75045 35893 ft 494 kts 49°
2026-05-06 14:54 37.50356 -6.68373 35886 ft 495 kts 49°
2026-05-06 14:55 37.54762 -6.61697 35916 ft 496 kts 49°
2026-05-06 14:55 37.59162 -6.55012 35914 ft 495 kts 49°
2026-05-06 14:56 37.63536 -6.48355 35908 ft 495 kts 49°
2026-05-06 14:56 37.67927 -6.41648 35882 ft 496 kts 49°
2026-05-06 14:57 37.72322 -6.34924 35877 ft 497 kts 49°
2026-05-06 14:57 37.76733 -6.28170 35881 ft 498 kts 49°
2026-05-06 14:58 37.81120 -6.21435 35898 ft 498 kts 49°
2026-05-06 14:58 37.85527 -6.14661 35904 ft 498 kts 49°
2026-05-06 14:59 37.89922 -6.07890 35899 ft 498 kts 49°
2026-05-06 14:59 37.94315 -6.01086 35880 ft 499 kts 49°
2026-05-06 15:00 37.98687 -5.94229 35886 ft 500 kts 50°
2026-05-06 15:00 38.02990 -5.87343 35886 ft 501 kts 50°
2026-05-06 15:01 38.07312 -5.80390 35922 ft 501 kts 50°
2026-05-06 15:01 38.11628 -5.73448 35923 ft 500 kts 50°
2026-05-06 15:02 38.15946 -5.66517 35909 ft 500 kts 50°
2026-05-06 15:02 38.20236 -5.59617 35907 ft 501 kts 50°
2026-05-06 15:03 38.24556 -5.52657 35907 ft 501 kts 50°
2026-05-06 15:03 38.28873 -5.45677 35908 ft 502 kts 50°
2026-05-06 15:04 38.33191 -5.38694 35911 ft 502 kts 50°
2026-05-06 15:04 38.37507 -5.31694 35898 ft 502 kts 50°
2026-05-06 15:05 38.41800 -5.24719 35885 ft 504 kts 51°
2026-05-06 15:05 38.46130 -5.17664 35890 ft 505 kts 51°
2026-05-06 15:06 38.50493 -5.10593 35897 ft 506 kts 47°
2026-05-06 15:06 38.55413 -5.04237 35934 ft 504 kts 42°
2026-05-06 15:07 38.60430 -4.97949 35932 ft 503 kts 42°
2026-05-06 15:07 38.65394 -4.91718 35920 ft 503 kts 42°
2026-05-06 15:08 38.70382 -4.85429 35921 ft 503 kts 42°
2026-05-06 15:08 38.75370 -4.79129 35920 ft 504 kts 42°
2026-05-06 15:09 38.80359 -4.72812 35935 ft 504 kts 42°
2026-05-06 15:09 38.85356 -4.66478 35939 ft 503 kts 43°
2026-05-06 15:10 38.90336 -4.60153 35933 ft 503 kts 43°
2026-05-06 15:10 38.95309 -4.53823 35916 ft 503 kts 43°
2026-05-06 15:11 39.00247 -4.47521 35917 ft 503 kts 43°
2026-05-06 15:11 39.05217 -4.41164 35946 ft 504 kts 43°
2026-05-06 15:12 39.10178 -4.34812 35942 ft 502 kts 43°
2026-05-06 15:12 39.15118 -4.28467 35941 ft 501 kts 43°
2026-05-06 15:13 39.20049 -4.22118 35930 ft 500 kts 43°
2026-05-06 15:13 39.24969 -4.15765 35932 ft 500 kts 43°
2026-05-06 15:14 39.29885 -4.09414 35945 ft 500 kts 43°
2026-05-06 15:14 39.34790 -4.03070 35938 ft 499 kts 43°
2026-05-06 15:15 39.39684 -3.96729 35934 ft 498 kts 43°
2026-05-06 15:15 39.44570 -3.90364 35935 ft 498 kts 43°
2026-05-06 15:16 39.49446 -3.83999 35934 ft 497 kts 43°
2026-05-06 15:16 39.54284 -3.77671 35943 ft 497 kts 43°
2026-05-06 15:17 39.59160 -3.71311 35935 ft 497 kts 43°
2026-05-06 15:17 39.64023 -3.64952 35938 ft 496 kts 43°
2026-05-06 15:18 39.68871 -3.58570 35933 ft 496 kts 43°
2026-05-06 15:18 39.73711 -3.52190 35932 ft 496 kts 43°
2026-05-06 15:19 39.78686 -3.46008 35947 ft 492 kts 34°
2026-05-06 15:19 39.84337 -3.41051 35938 ft 490 kts 30°
2026-05-06 15:20 39.90040 -3.36171 35933 ft 490 kts 30°
2026-05-06 15:20 39.95728 -3.31279 35933 ft 490 kts 30°
2026-05-06 15:21 40.01414 -3.26376 35960 ft 489 kts 30°
2026-05-06 15:21 40.07088 -3.21466 35956 ft 488 kts 31°
2026-05-06 15:22 40.12708 -3.16590 35955 ft 488 kts 30°
2026-05-06 15:22 40.18361 -3.11690 35951 ft 487 kts 30°
2026-05-06 15:23 40.24012 -3.06782 35961 ft 487 kts 30°
2026-05-06 15:23 40.29650 -3.01874 35956 ft 486 kts 31°
2026-05-06 15:24 40.35288 -2.96948 35950 ft 486 kts 31°
2026-05-06 15:24 40.40914 -2.92019 35947 ft 487 kts 31°
2026-05-06 15:25 40.46548 -2.87079 35962 ft 486 kts 31°
2026-05-06 15:25 40.52181 -2.82138 35966 ft 486 kts 31°
2026-05-06 15:26 40.57798 -2.77193 35959 ft 486 kts 31°
2026-05-06 15:26 40.63413 -2.72236 35945 ft 485 kts 31°
2026-05-06 15:27 40.68988 -2.67308 35951 ft 486 kts 31°
2026-05-06 15:27 40.74593 -2.62339 35942 ft 486 kts 31°
2026-05-06 15:28 40.80202 -2.57359 35949 ft 486 kts 31°
2026-05-06 15:28 40.85816 -2.52371 35950 ft 486 kts 31°
2026-05-06 15:29 40.91425 -2.47372 35972 ft 486 kts 31°
2026-05-06 15:29 40.97026 -2.42373 35969 ft 485 kts 31°
2026-05-06 15:30 41.02606 -2.37351 35971 ft 485 kts 32°
2026-05-06 15:30 41.07996 -2.31926 35968 ft 486 kts 36°
2026-05-06 15:31 41.13211 -2.26198 35974 ft 487 kts 37°
2026-05-06 15:31 41.18431 -2.20476 35967 ft 486 kts 36°
2026-05-06 15:32 41.26351 -2.12043 35961 ft 486 kts 36°
2026-05-06 15:32 41.31602 -2.06474 35960 ft 486 kts 36°
2026-05-06 15:33 41.36876 -2.00825 35980 ft 486 kts 36°
2026-05-06 15:33 41.42128 -1.95166 35975 ft 485 kts 36°
2026-05-06 15:34 41.47378 -1.89503 35967 ft 485 kts 36°
2026-05-06 15:34 41.52628 -1.83843 35958 ft 485 kts 36°
2026-05-06 15:35 41.57885 -1.78166 35971 ft 486 kts 36°
2026-05-06 15:35 41.63134 -1.72478 35975 ft 485 kts 36°
2026-05-06 15:36 41.68379 -1.66777 35978 ft 485 kts 36°
2026-05-06 15:36 41.73586 -1.61122 35975 ft 485 kts 36°
2026-05-06 15:37 41.78826 -1.55422 35998 ft 485 kts 36°
2026-05-06 15:37 41.84048 -1.49713 35993 ft 484 kts 36°
2026-05-06 15:38 41.89269 -1.43987 35997 ft 484 kts 36°
2026-05-06 15:38 41.94485 -1.38260 35991 ft 484 kts 36°
2026-05-06 15:39 41.98824 -1.33489 35987 ft 485 kts 36°
2026-05-06 15:39 42.04035 -1.27738 35988 ft 484 kts 36°
2026-05-06 15:40 42.09240 -1.21992 35984 ft 484 kts 36°
2026-05-06 15:40 42.14439 -1.16236 35981 ft 484 kts 36°
2026-05-06 15:41 42.19644 -1.10460 35988 ft 484 kts 36°
2026-05-06 15:41 42.24851 -1.04675 35980 ft 485 kts 36°
2026-05-06 15:42 42.30069 -0.98875 35976 ft 485 kts 36°
2026-05-06 15:42 42.35267 -0.93067 35975 ft 485 kts 36°
2026-05-06 15:43 42.40435 -0.87277 35985 ft 485 kts 36°
2026-05-06 15:43 42.45106 -0.80675 35978 ft 489 kts 50°
2026-05-06 15:44 42.49253 -0.73371 35957 ft 489 kts 50°
2026-05-06 15:44 42.53410 -0.66059 35957 ft 490 kts 50°
2026-05-06 15:45 42.57563 -0.58734 35949 ft 490 kts 50°
2026-05-06 15:45 42.61717 -0.51377 35981 ft 490 kts 50°
2026-05-06 15:46 42.65861 -0.44024 35978 ft 490 kts 51°
2026-05-06 15:46 42.69971 -0.36711 35986 ft 489 kts 51°
2026-05-06 15:47 42.74099 -0.29345 35985 ft 490 kts 51°
2026-05-06 15:47 42.78220 -0.21976 35996 ft 489 kts 51°
2026-05-06 15:48 42.82391 -0.14654 35993 ft 488 kts 49°
2026-05-06 15:48 42.86721 -0.07522 36002 ft 488 kts 47°
2026-05-06 15:49 42.91079 -0.00424 36005 ft 489 kts 48°
2026-05-06 15:49 42.95400 0.06761 35983 ft 490 kts 49°
2026-05-06 15:50 42.99699 0.13981 35982 ft 490 kts 49°
2026-05-06 15:50 43.03983 0.21182 36012 ft 490 kts 49°
2026-05-06 15:51 43.08280 0.28415 36012 ft 489 kts 49°
2026-05-06 15:51 43.12567 0.35652 36011 ft 489 kts 49°
2026-05-06 15:52 43.16822 0.42847 35998 ft 490 kts 49°
2026-05-06 15:52 43.21121 0.50138 35982 ft 491 kts 49°
2026-05-06 15:53 43.25415 0.57428 36007 ft 491 kts 49°
2026-05-06 15:53 43.29696 0.64724 35997 ft 491 kts 49°
2026-05-06 15:54 43.33960 0.72028 35993 ft 490 kts 49°
2026-05-06 15:54 43.38211 0.79295 35970 ft 490 kts 49°
2026-05-06 15:55 43.42489 0.86613 35956 ft 491 kts 49°
2026-05-06 15:55 43.46761 0.93967 35980 ft 491 kts 50°
2026-05-06 15:56 43.51015 1.01314 35975 ft 490 kts 50°
2026-05-06 15:56 43.55259 1.08649 35971 ft 489 kts 50°
2026-05-06 15:57 43.59503 1.16002 35953 ft 489 kts 50°
2026-05-06 15:57 43.63719 1.23326 35960 ft 490 kts 50°
2026-05-06 15:58 43.67957 1.30704 35962 ft 490 kts 50°
2026-05-06 15:58 43.72094 1.38206 35961 ft 490 kts 52°
2026-05-06 15:59 43.76098 1.45829 35960 ft 490 kts 53°
2026-05-06 15:59 43.80099 1.53462 35949 ft 489 kts 52°
2026-05-06 16:00 43.84131 1.61064 35950 ft 490 kts 52°
2026-05-06 16:00 43.88172 1.68663 35944 ft 490 kts 52°
2026-05-06 16:01 43.92181 1.76231 35941 ft 490 kts 52°
2026-05-06 16:01 43.96190 1.83878 35946 ft 490 kts 53°
2026-05-06 16:02 44.00106 1.91635 35936 ft 491 kts 54°
2026-05-06 16:02 44.03960 1.99485 35957 ft 491 kts 55°
2026-05-06 16:03 44.07825 2.07333 35954 ft 491 kts 54°
2026-05-06 16:03 44.11707 2.15149 35963 ft 491 kts 54°
2026-05-06 16:04 44.15586 2.22966 35954 ft 491 kts 54°
2026-05-06 16:04 44.19444 2.30802 35949 ft 491 kts 54°
2026-05-06 16:05 44.23307 2.38665 35954 ft 491 kts 55°
2026-05-06 16:05 44.27162 2.46541 35955 ft 491 kts 55°
2026-05-06 16:06 44.31008 2.54414 35956 ft 491 kts 55°
2026-05-06 16:06 44.34850 2.62297 35956 ft 491 kts 55°
2026-05-06 16:07 44.38688 2.70193 35937 ft 491 kts 55°
2026-05-06 16:07 44.42524 2.78108 35953 ft 491 kts 55°
2026-05-06 16:08 44.46332 2.85981 35946 ft 491 kts 55°
2026-05-06 16:08 44.50158 2.93925 35943 ft 491 kts 56°
2026-05-06 16:09 44.53973 3.01874 35948 ft 492 kts 56°
2026-05-06 16:09 44.57793 3.09837 35940 ft 492 kts 56°
2026-05-06 16:10 44.61588 3.17848 35943 ft 492 kts 58°
2026-05-06 16:10 44.65058 3.26137 35932 ft 493 kts 61°
2026-05-06 16:11 44.68309 3.34612 35935 ft 493 kts 62°
2026-05-06 16:11 44.71578 3.43075 35930 ft 493 kts 61°
2026-05-06 16:12 44.74925 3.51485 35924 ft 492 kts 60°
2026-05-06 16:12 44.78292 3.59872 35922 ft 492 kts 60°
2026-05-06 16:13 44.81638 3.68281 35916 ft 492 kts 61°
2026-05-06 16:13 44.84963 3.76717 35917 ft 492 kts 61°
2026-05-06 16:14 44.88276 3.85137 35893 ft 492 kts 61°
2026-05-06 16:14 44.91578 3.93535 35894 ft 493 kts 61°
2026-05-06 16:15 44.94924 4.02080 35910 ft 493 kts 61°
2026-05-06 16:15 44.98233 4.10572 35911 ft 493 kts 61°
2026-05-06 16:16 45.01530 4.19063 35918 ft 493 kts 61°
2026-05-06 16:16 45.04818 4.27560 35888 ft 493 kts 61°
2026-05-06 16:17 45.08118 4.36088 35893 ft 494 kts 62°
2026-05-06 16:17 45.11409 4.44622 35903 ft 494 kts 62°
2026-05-06 16:18 45.14693 4.53167 35917 ft 494 kts 62°
2026-05-06 16:18 45.17960 4.61716 35918 ft 493 kts 62°
2026-05-06 16:19 45.21204 4.70225 35897 ft 493 kts 62°
2026-05-06 16:19 45.24473 4.78801 35900 ft 494 kts 62°
2026-05-06 16:20 45.27738 4.87378 35909 ft 494 kts 62°
2026-05-06 16:20 45.30996 4.95984 35936 ft 493 kts 62°
2026-05-06 16:21 45.34234 5.04588 35915 ft 493 kts 63°
2026-05-06 16:21 45.37461 5.13187 35914 ft 493 kts 63°
2026-05-06 16:22 45.40685 5.21800 35915 ft 493 kts 63°
2026-05-06 16:22 45.43890 5.30375 35915 ft 494 kts 63°
2026-05-06 16:23 45.47106 5.39010 35929 ft 493 kts 62°
2026-05-06 16:23 45.51225 5.46792 35912 ft 493 kts 43°
2026-05-06 16:24 45.56337 5.53328 35909 ft 494 kts 41°
2026-05-06 16:24 45.61465 5.59878 35912 ft 495 kts 41°
2026-05-06 16:25 45.65760 5.65389 35919 ft 495 kts 41°
2026-05-06 16:25 45.70852 5.71939 35926 ft 495 kts 41°
2026-05-06 16:26 45.75978 5.78535 35929 ft 495 kts 41°
2026-05-06 16:26 45.81104 5.85128 35930 ft 495 kts 41°
2026-05-06 16:27 45.86243 5.91730 35922 ft 495 kts 41°
2026-05-06 16:27 45.91365 5.98344 35909 ft 496 kts 42°
2026-05-06 16:28 45.96475 6.04973 35908 ft 497 kts 42°
2026-05-06 16:28 46.01615 6.11640 35930 ft 498 kts 42°
2026-05-06 16:29 46.06741 6.18309 35937 ft 496 kts 42°
2026-05-06 16:29 46.11206 6.25827 35938 ft 494 kts 56°
2026-05-06 16:30 46.14485 6.32570 35938 ft 494 kts 56°
2026-05-06 16:30 46.19118 6.42062 35920 ft 495 kts 56°
2026-05-06 16:31 46.23069 6.50191 35921 ft 496 kts 56°
2026-05-06 16:31 46.27011 6.58329 35925 ft 497 kts 56°
2026-05-06 16:32 46.30967 6.66521 35924 ft 497 kts 57°
2026-05-06 16:32 46.34921 6.74742 35934 ft 497 kts 56°
2026-05-06 16:33 46.38874 6.82968 35944 ft 497 kts 57°
2026-05-06 16:34 46.44808 6.95359 35906 ft 499 kts 57°
2026-05-06 16:34 46.48733 7.03598 35910 ft 499 kts 57°
2026-05-06 16:35 46.52686 7.11918 35910 ft 500 kts 57°
2026-05-06 16:35 46.56894 7.19956 35913 ft 502 kts 45°
2026-05-06 16:36 46.62447 7.26045 35915 ft 501 kts 26°
2026-05-06 16:36 46.68746 7.30365 35905 ft 501 kts 24°
2026-05-06 16:37 46.75074 7.34628 35733 ft 500 kts 24°
2026-05-06 16:37 46.78219 7.36753 35897 ft 498 kts 24°
2026-05-06 16:37 46.81351 7.38941 35903 ft 498 kts 28°
2026-05-06 16:38 46.86863 7.44992 35909 ft 496 kts 47°
2026-05-06 16:38 46.91238 7.52754 35933 ft 494 kts 53°
2026-05-06 16:39 46.95493 7.60566 35940 ft 493 kts 53°
2026-05-06 16:39 46.99755 7.68414 35936 ft 492 kts 53°
2026-05-06 16:40 47.04001 7.76276 35936 ft 491 kts 53°
2026-05-06 16:40 47.08235 7.84142 35933 ft 490 kts 53°
2026-05-06 16:41 47.12445 7.92001 35932 ft 489 kts 53°
2026-05-06 16:41 47.16216 8.00287 35938 ft 487 kts 60°
2026-05-06 16:42 47.19782 8.08662 35929 ft 486 kts 60°
2026-05-06 16:42 47.23374 8.17092 35928 ft 486 kts 60°
2026-05-06 16:43 47.26959 8.25539 35917 ft 485 kts 60°
2026-05-06 16:43 47.30299 8.34084 35892 ft 481 kts 70°
2026-05-06 16:44 47.32459 8.43393 35902 ft 478 kts 75°
2026-05-06 16:44 47.34496 8.52684 35895 ft 478 kts 75°
2026-05-06 16:45 47.36556 8.62009 35889 ft 478 kts 75°
2026-05-06 16:45 47.38612 8.71349 35893 ft 477 kts 75°
2026-05-06 16:46 47.40650 8.80687 35873 ft 477 kts 75°
2026-05-06 16:46 47.42666 8.89960 35883 ft 477 kts 75°
2026-05-06 16:47 47.44699 8.99307 35886 ft 477 kts 75°
2026-05-06 16:47 47.46711 9.08608 35898 ft 476 kts 76°
2026-05-06 16:48 47.48719 9.17971 35896 ft 476 kts 76°
2026-05-06 16:48 47.50692 9.27282 35873 ft 475 kts 76°
2026-05-06 16:49 47.52654 9.36563 35869 ft 475 kts 76°
2026-05-06 16:49 47.54637 9.45902 35893 ft 475 kts 76°
2026-05-06 16:50 47.56602 9.55244 35893 ft 475 kts 76°
2026-05-06 16:50 47.58283 9.64655 35892 ft 470 kts 86°
2026-05-06 16:51 47.58339 9.74220 35863 ft 463 kts 97°
2026-05-06 16:51 47.58144 9.78991 35710 ft 465 kts 97°
2026-05-06 16:51 47.57951 9.83765 35243 ft 464 kts 97°
2026-05-06 16:51 47.57758 9.88556 34796 ft 464 kts 98°
2026-05-06 16:52 47.57564 9.93319 34363 ft 463 kts 98°
2026-05-06 16:52 47.57369 9.98075 33928 ft 462 kts 98°
2026-05-06 16:52 47.57172 10.02823 33435 ft 462 kts 98°
2026-05-06 16:52 47.56970 10.07578 32946 ft 462 kts 98°
2026-05-06 16:53 47.56762 10.12341 32450 ft 466 kts 98°
2026-05-06 16:53 47.56548 10.17140 31974 ft 468 kts 98°
2026-05-06 16:53 47.56334 10.21953 31511 ft 469 kts 98°
2026-05-06 16:53 47.56121 10.26776 31042 ft 470 kts 98°
2026-05-06 16:54 47.55906 10.31613 30585 ft 471 kts 98°
2026-05-06 16:54 47.55688 10.36446 30083 ft 471 kts 98°
2026-05-06 16:54 47.55469 10.41239 29493 ft 472 kts 98°
2026-05-06 16:54 47.55248 10.46111 28858 ft 473 kts 97°
2026-05-06 16:55 47.55309 10.51004 28224 ft 478 kts 88°
2026-05-06 16:55 47.55906 10.55865 27632 ft 483 kts 78°
2026-05-06 16:55 47.57033 10.60556 27033 ft 485 kts 68°
2026-05-06 16:55 47.58643 10.64949 26466 ft 484 kts 61°
2026-05-06 16:56 47.60370 10.69215 25909 ft 479 kts 61°
2026-05-06 16:56 47.62081 10.73456 25366 ft 480 kts 61°
2026-05-06 16:56 47.63760 10.77635 24832 ft 477 kts 61°
2026-05-06 16:56 47.65446 10.81851 24301 ft 473 kts 61°
2026-05-06 16:57 47.67143 10.86008 23780 ft 470 kts 57°
2026-05-06 16:57 47.69174 10.89781 23280 ft 467 kts 47°
2026-05-06 16:57 47.71582 10.92996 22727 ft 465 kts 39°
2026-05-06 16:57 47.74110 10.95986 22196 ft 462 kts 39°
2026-05-06 16:58 47.76627 10.98967 21669 ft 459 kts 39°
2026-05-06 16:58 47.79085 11.01883 21161 ft 456 kts 39°
2026-05-06 16:58 47.81558 11.04824 20682 ft 451 kts 39°
2026-05-06 16:58 47.84002 11.07742 20181 ft 448 kts 40°
2026-05-06 16:59 47.86258 11.10900 19682 ft 443 kts 50°
2026-05-06 16:59 47.88090 11.14551 19205 ft 438 kts 59°
2026-05-06 16:59 47.89746 11.18354 18724 ft 436 kts 58°
2026-05-06 16:59 47.91393 11.22140 18255 ft 433 kts 58°
2026-05-06 17:00 47.93006 11.25849 17709 ft 430 kts 58°
2026-05-06 17:00 47.94628 11.29585 17162 ft 426 kts 58°
2026-05-06 17:00 47.96230 11.33287 16656 ft 423 kts 58°
2026-05-06 17:00 47.97818 11.36956 16134 ft 420 kts 58°
2026-05-06 17:01 47.99401 11.40614 15667 ft 417 kts 58°
2026-05-06 17:01 48.00963 11.44238 15174 ft 414 kts 58°
2026-05-06 17:01 48.02513 11.47834 14688 ft 408 kts 58°
2026-05-06 17:01 48.04039 11.51365 14210 ft 402 kts 58°
2026-05-06 17:02 48.05533 11.54828 13750 ft 396 kts 58°
2026-05-06 17:02 48.07015 11.58270 13231 ft 391 kts 58°
2026-05-06 17:02 48.08474 11.61667 12706 ft 386 kts 58°
2026-05-06 17:02 48.09913 11.65024 12188 ft 381 kts 58°
2026-05-06 17:03 48.11334 11.68345 11667 ft 376 kts 58°
2026-05-06 17:03 48.12741 11.71628 11164 ft 372 kts 58°
2026-05-06 17:03 48.14132 11.74876 10670 ft 367 kts 58°
2026-05-06 17:03 48.15500 11.78080 10179 ft 363 kts 58°
2026-05-06 17:04 48.16847 11.81246 9846 ft 354 kts 58°
2026-05-06 17:04 48.18127 11.84259 9795 ft 337 kts 58°
2026-05-06 17:04 48.19354 11.87150 9804 ft 319 kts 58°
2026-05-06 17:04 48.20516 11.89885 9795 ft 303 kts 58°
2026-05-06 17:05 48.21639 11.92527 9672 ft 300 kts 58°
2026-05-06 17:05 48.22770 11.95194 9142 ft 303 kts 58°
2026-05-06 17:05 48.23887 11.97831 8626 ft 301 kts 58°
2026-05-06 17:05 48.24989 12.00433 8112 ft 291 kts 58°
2026-05-06 17:06 48.26066 12.02979 7626 ft 284 kts 58°
2026-05-06 17:06 48.27103 12.05430 7124 ft 272 kts 58°
2026-05-06 17:06 48.28095 12.07781 6632 ft 261 kts 58°
2026-05-06 17:06 48.29048 12.10036 6178 ft 255 kts 59°
2026-05-06 17:07 48.30002 12.12300 5660 ft 257 kts 59°
2026-05-06 17:07 48.30960 12.14571 5157 ft 258 kts 58°
2026-05-06 17:07 48.32231 12.16407 4829 ft 250 kts 26°
2026-05-06 17:07 48.33865 12.16922 4913 ft 238 kts 355°
2026-05-06 17:08 48.35400 12.16157 4938 ft 233 kts 323°
2026-05-06 17:08 48.36448 12.14362 4943 ft 229 kts 293°
2026-05-06 17:08 48.36812 12.12099 4965 ft 218 kts 269°
2026-05-06 17:08 48.36682 12.09866 4978 ft 213 kts 262°
2026-05-06 17:09 48.36521 12.07682 4906 ft 213 kts 262°
2026-05-06 17:09 48.36359 12.05484 4677 ft 208 kts 262°
2026-05-06 17:09 48.36203 12.03373 4416 ft 198 kts 263°
2026-05-06 17:09 48.36055 12.01382 4177 ft 183 kts 262°
2026-05-06 17:10 48.35920 11.99566 3931 ft 165 kts 263°
2026-05-06 17:10 48.35798 11.97941 3724 ft 150 kts 263°
2026-05-06 17:10 48.35684 11.96415 3524 ft 145 kts 263°
2026-05-06 17:10 48.35572 11.94923 3337 ft 142 kts 263°
2026-05-06 17:11 48.35462 11.93455 3157 ft 141 kts 263°
2026-05-06 17:11 48.35389 11.92486 3040 ft 140 kts 263°
2026-05-06 17:11 48.35280 11.91040 2848 ft 139 kts 263°
2026-05-06 17:11 48.35170 11.89590 2662 ft 140 kts 263°
2026-05-06 17:12 48.35061 11.88140 2476 ft 139 kts 264°
2026-05-06 17:12 48.34953 11.86704 2297 ft 137 kts 262°
2026-05-06 17:12 48.34849 11.85294 2142 ft 135 kts 264°
2026-05-06 17:12 48.34744 11.83896 1956 ft 133 kts 263°
2026-05-06 17:13 48.34632 11.82537 1803 ft 130 kts 263°
2026-05-06 17:13 48.34538 11.81194 1628 ft 128 kts 263°
2026-05-06 17:13 48.34434 11.79875 1476 ft 122 kts 263°
2026-05-06 17:13 48.34360 11.78914 1477 ft 51 kts 263°
2026-05-06 17:14 48.34386 11.78563 1483 ft 30 kts 292°
2026-05-06 17:14 48.34447 11.78351 1482 ft 19 kts 294°
2026-05-06 17:14 48.34492 11.78194 1484 ft 14 kts 293°
2026-05-06 17:14 48.34504 11.78154 1481 ft 1 kts 294°
2026-05-06 17:15 48.34522 11.78096 1484 ft 12 kts 295°
2026-05-06 17:15 48.34555 11.77989 1473 ft 11 kts 294°
2026-05-06 17:15 48.34589 11.77913 1481 ft 8 kts 320°
2026-05-06 17:15 48.34639 11.77904 1485 ft 7 kts 356°
2026-05-06 17:16 48.34683 11.77898 1483 ft 6 kts 354°
2026-05-06 17:16 48.34716 11.77893 1474 ft 4 kts 353°
2026-05-06 17:16 48.34739 11.77889 1481 ft 3 kts 353°
2026-05-06 17:16 48.34755 11.77886 1486 ft 4 kts 353°
2026-05-06 17:17 48.34832 11.77873 1478 ft 14 kts 353°
2026-05-06 17:17 48.34928 11.77856 1476 ft 13 kts 353°
2026-05-06 17:17 48.35001 11.77843 1478 ft 9 kts 353°
2026-05-06 17:17 48.35062 11.77832 1485 ft 9 kts 353°
2026-05-06 17:18 48.35119 11.77822 1478 ft 8 kts 354°
2026-05-06 17:18 48.35173 11.77855 1479 ft 12 kts 51°
2026-05-06 17:18 48.35189 11.77968 1479 ft 10 kts 83°
2026-05-06 17:18 48.35196 11.78058 1482 ft 8 kts 83°
2026-05-06 17:19 48.35197 11.78140 1476 ft 9 kts 102°
2026-05-06 17:19 48.35138 11.78198 1476 ft 9 kts 171°
2026-05-06 17:19 48.35094 11.78206 1473 ft 1 kts 173°
2026-05-06 17:19 48.35092 11.78206 1473 ft 1 kts 173°
2026-05-06 17:20 48.35083 11.78208 1477 ft 1 kts 173°
2026-05-06 17:20 48.35079 11.78208 1478 ft 0 kts 173°
2026-05-06 17:20 48.35075 11.78209 1478 ft 3 kts 174°
2026-05-06 17:20 48.35058 11.78212 1484 ft 1 kts 173°
2026-05-06 17:21 48.35056 11.78212 1484 ft 1 kts 173°
2026-05-06 17:21 48.35035 11.78216 1478 ft 7 kts 174°
2026-05-06 17:21 48.34953 11.78232 1482 ft 13 kts 159°
2026-05-06 17:21 48.34943 11.78307 1480 ft 7 kts 84°
2026-05-06 17:22 48.34947 11.78360 1485 ft 1 kts 83°
2026-05-06 17:22 48.34948 11.78372 1485 ft 1 kts 83°
2026-05-06 17:22 48.34949 11.78378 1485 ft 0 kts 83°